Weather Service Report


484 
ASCA42 TJSJ 252011
RWRPR 
PUERTO RICO/U.S. VIRGIN ISLANDS HOURLY WEATHER ROUNDUP
NATIONAL WEATHER SERVICE SAN JUAN PR
400 PM AST SAT OCT 25 2014

PRZ001-004-252100-
PUERTO RICO
  
CITY           SKY/WX    TMP DP  RH WIND       PRES   REMARKS
SAN JUAN LMM   MOSUNNY   90  73  58 SE13G21   29.84S HX  98           
MAYAGUEZ       MOSUNNY   90  70  51 S9        29.86F HX  95           
AGUADILLA      MOSUNNY   84  73  70 E5        29.87S HX  91           
CEIBA          SUNNY     88  73  62 S13       29.88F HX  96           
$$

PRZ006-007-252100-
U.S. VIRGIN ISLANDS
  
CITY           SKY/WX    TMP DP  RH WIND       PRES   REMARKS
$$

HOURLY WEATHER ROUNDUP FOR THE NEWS MEDIA
  
CITY           SKY/WX    TMP DP  RH WIND       PRES   REMARKS
MIAMI          PTSUNNY   83  62  49 NE9       29.88S                  
ORLANDO        SUNNY     80  56  43 N7        29.93F                  
NEW YORK       MOSUNNY   68  43  40 SW15      29.69F                  
NEWARK         MOSUNNY   69  43  38 W14G23    29.68F                  
CHICAGO        MOSUNNY   72  33  24 NW17      29.91F                  
HARTFORD       PTSUNNY   65  40  39 W12       29.62F                  
BOSTON         CLOUDY    64  38  38 W9        29.60F                  
DALLAS         SUNNY     86  61  42 S7        30.08F                  
PHILADELPHIA   MOSUNNY   70  45  40 W9        29.74F                  

Return to Home page


Western Regional Climate Center, wrcc@dri.edu